This is the latest recevied weather packets stored in our database for station/object N0TKN. If no packets are shown the sender has not sent any weather packets the latest 10 day(s).
| Time | Temp. | Humidity | Pressure | Rain* | Wind** | Luminosity | Snow |
|---|---|---|---|---|---|---|---|
| 1777837517 | 25.56° C | 38% | 1009.1 hPa | 0 mm | - | 819 W/m² | - |
| 1777836917 | 25.56° C | 38% | 1009.1 hPa | 0 mm | - | 835 W/m² | - |
| 1777836317 | 25° C | 38% | 1009.4 hPa | 0 mm | - | 852 W/m² | - |
| 1777835717 | 25° C | 37% | 1009.6 hPa | 0 mm | - | 867 W/m² | - |
| 1777835117 | 24.44° C | 39% | 1009.7 hPa | 0 mm | - | 880 W/m² | - |
| 1777834517 | 24.44° C | 38% | 1009.8 hPa | 0 mm | - | 890 W/m² | - |
| 1777833918 | 23.89° C | 37% | 1010.2 hPa | 0 mm | - | 901 W/m² | - |
| 1777833318 | 23.89° C | 38% | 1010.3 hPa | 0 mm | - | 910 W/m² | - |
| 1777832718 | 23.33° C | 39% | 1010.4 hPa | 0 mm | - | 916 W/m² | - |
| 1777832119 | 23.33° C | 38% | 1010.7 hPa | 0 mm | - | 919 W/m² | - |
| 1777831519 | 22.78° C | 39% | 1011.1 hPa | 0 mm | - | 922 W/m² | - |
| 1777830918 | 22.78° C | 39% | 1011.4 hPa | 0 mm | - | 923 W/m² | - |
| 1777830316 | 22.78° C | 39% | 1011.8 hPa | 0 mm | - | 912 W/m² | - |
| 1777829715 | 22.22° C | 38% | 1011.8 hPa | 0 mm | - | 919 W/m² | - |
| 1777829116 | 22.22° C | 38% | 1012.2 hPa | 0 mm | - | 913 W/m² | - |
| 1777828516 | 22.22° C | 39% | 1012.2 hPa | 0 mm | - | 904 W/m² | - |
| 1777827917 | 21.67° C | 39% | 1012.2 hPa | 0 mm | - | 896 W/m² | - |
| 1777827316 | 21.11° C | 41% | 1012.4 hPa | 0 mm | - | 887 W/m² | - |
| 1777826716 | 20.56° C | 41% | 1012.6 hPa | 0 mm | - | 875 W/m² | - |
| 1777826117 | 20° C | 42% | 1012.8 hPa | 0 mm | - | 859 W/m² | - |
| 1777825517 | 20° C | 42% | 1013 hPa | 0 mm | - | 843 W/m² | - |
| 1777824917 | 19.44° C | 43% | 1013.1 hPa | 0 mm | - | 827 W/m² | - |
| 1777824317 | 18.89° C | 43% | 1013.2 hPa | 0 mm | - | 808 W/m² | - |
| 1777823717 | 18.89° C | 42% | 1013.2 hPa | 0 mm | - | 786 W/m² | - |
| 1777823117 | 18.33° C | 43% | 1013.3 hPa | 0 mm | - | 766 W/m² | - |
* Rain latest hour (hover to see other rain measurements)
** Current wind speed in m/s (hover to see current wind gust speed)